• en Belgique
  • Liste des pays
  • À 7 jours
  • Température de l'eau
  • Carte satellitaire
  • Carte météo
  • Widgets météo
  • user-avatar
    Se connecter

    Météo par heure à Quito

    Ce jour, 23 Février, Vendredi

    Heure Température Précipitation Vent Pression Humidité
    00:00 +17°C° 0 mm 2 m/s 620 mmHg 94%
    01:00 +18°C° 0 mm 1 m/s 620 mmHg 95%
    02:00 +16°C° 0 mm 1 m/s 620 mmHg 95%
    03:00 +16°C° 0 mm 1 m/s 619 mmHg 95%
    04:00 +16°C° 0 mm 1 m/s 619 mmHg 95%
    05:00 +16°C° 0 mm 1 m/s 619 mmHg 95%
    06:00 +18°C° 0 mm 1 m/s 620 mmHg 94%
    07:00 +18°C° 0 mm 1 m/s 620 mmHg 93%
    08:00 +19°C° 0,3 mm 1 m/s 621 mmHg 89%
    09:00 +20°C° 0,3 mm 2 m/s 621 mmHg 84%
    10:00 +21°C° 0,3 mm 2 m/s 622 mmHg 79%
    11:00 +23°C° 0,8 mm 2 m/s 621 mmHg 77%
    12:00 +24°C° 0,8 mm 2 m/s 621 mmHg 75%
    13:00 +24°C° 0,8 mm 2 m/s 621 mmHg 73%
    14:00 +24°C° 1,1 mm 2 m/s 620 mmHg 76%
    15:00 +24°C° 1,1 mm 2 m/s 620 mmHg 79%
    16:00 +23°C° 1,1 mm 2 m/s 620 mmHg 81%
    17:00 +21°C° 1,1 mm 2 m/s 620 mmHg 85%
    18:00 +20°C° 1,1 mm 2 m/s 620 mmHg 90%
    19:00 +18°C° 1,1 mm 2 m/s 620 mmHg 94%
    20:00 +18°C° 1 mm 2 m/s 620 mmHg 94%
    21:00 +18°C° 1 mm 2 m/s 620 mmHg 94%
    22:00 +17°C° 1 mm 2 m/s 621 mmHg 94%
    23:00 +17°C° 1 mm 2 m/s 621 mmHg 94%

    Demain, 24 Février, Samedi

    Heure Température Précipitation Vent Pression Humidité
    00:00 +17°C° 1 mm 2 m/s 621 mmHg 94%
    01:00 +17°C° 1 mm 2 m/s 621 mmHg 94%
    02:00 +17°C° 0,3 mm 2 m/s 620 mmHg 95%
    03:00 +16°C° 0,3 mm 2 m/s 620 mmHg 95%
    04:00 +16°C° 0,3 mm 3 m/s 620 mmHg 96%
    05:00 +16°C° 0,1 mm 3 m/s 620 mmHg 95%
    06:00 +16°C° 0,1 mm 3 m/s 620 mmHg 94%
    07:00 +16°C° 0,1 mm 3 m/s 621 mmHg 94%
    08:00 +18°C° 0,2 mm 3 m/s 621 mmHg 90%
    09:00 +19°C° 0,2 mm 3 m/s 622 mmHg 86%
    10:00 +20°C° 0,2 mm 3 m/s 623 mmHg 82%
    11:00 +20°C° 1,2 mm 2 m/s 622 mmHg 82%
    12:00 +21°C° 1,2 mm 2 m/s 622 mmHg 83%
    13:00 +21°C° 1,2 mm 2 m/s 621 mmHg 83%
    14:00 +20°C° 1,3 mm 2 m/s 621 mmHg 85%
    15:00 +20°C° 1,3 mm 2 m/s 620 mmHg 86%
    16:00 +20°C° 1,3 mm 2 m/s 620 mmHg 87%
    17:00 +19°C° 0,5 mm 2 m/s 620 mmHg 90%
    18:00 +18°C° 0,5 mm 2 m/s 620 mmHg 92%
    19:00 +17°C° 0,5 mm 2 m/s 620 mmHg 94%
    20:00 +17°C° 0,4 mm 2 m/s 621 mmHg 94%
    21:00 +17°C° 0,4 mm 2 m/s 621 mmHg 94%
    22:00 +17°C° 0,4 mm 2 m/s 622 mmHg 95%
    23:00 +16°C° 0,6 mm 2 m/s 622 mmHg 95%

    Après-demain, 25 Février, Dimanche

    Heure Température Précipitation Vent Pression Humidité
    00:00 +16°C° 0,6 mm 2 m/s 621 mmHg 95%
    01:00 +16°C° 0,6 mm 2 m/s 621 mmHg 96%
    02:00 +16°C° 0,4 mm 2 m/s 621 mmHg 96%
    03:00 +16°C° 0,4 mm 2 m/s 620 mmHg 96%
    04:00 +16°C° 0,4 mm 2 m/s 620 mmHg 96%
    05:00 +16°C° 0,3 mm 2 m/s 621 mmHg 96%
    06:00 +16°C° 0,3 mm 2 m/s 621 mmHg 95%
    07:00 +16°C° 0,3 mm 2 m/s 622 mmHg 95%
    08:00 +17°C° 0,4 mm 2 m/s 622 mmHg 92%
    09:00 +18°C° 0,4 mm 2 m/s 623 mmHg 90%
    10:00 +19°C° 0,4 mm 2 m/s 623 mmHg 87%
    11:00 +19°C° 0,7 mm 2 m/s 623 mmHg 87%
    12:00 +19°C° 0,7 mm 2 m/s 622 mmHg 87%
    13:00 +19°C° 0,7 mm 2 m/s 622 mmHg 87%
    14:00 +19°C° 0,5 mm 2 m/s 621 mmHg 87%
    15:00 +19°C° 0,5 mm 2 m/s 621 mmHg 86%
    16:00 +19°C° 0,5 mm 3 m/s 621 mmHg 86%
    17:00 +18°C° 0,4 mm 2 m/s 621 mmHg 89%
    18:00 +17°C° 0,4 mm 2 m/s 621 mmHg 92%
    19:00 +17°C° 0,4 mm 2 m/s 621 mmHg 94%
    20:00 +16°C° 0,2 mm 2 m/s 622 mmHg 94%
    21:00 +16°C° 0,2 mm 2 m/s 622 mmHg 94%
    22:00 +16°C° 0,2 mm 3 m/s 623 mmHg 93%
    23:00 +16°C° 0,1 mm 3 m/s 622 mmHg 93%

    26 Février, Lundi

    Heure Température Précipitation Vent Pression Humidité
    00:00 +14°C° 0,1 mm 3 m/s 621 mmHg 92%
    01:00 +14°C° 0,1 mm 3 m/s 621 mmHg 92%
    02:00 +14°C° 0 mm 3 m/s 621 mmHg 92%
    03:00 +15°C° 0 mm 2 m/s 621 mmHg 92%
    04:00 +15°C° 0 mm 2 m/s 620 mmHg 92%
    05:00 +15°C° 0 mm 2 m/s 621 mmHg 92%
    06:00 +15°C° 0 mm 2 m/s 621 mmHg 91%
    07:00 +15°C° 0 mm 2 m/s 622 mmHg 91%
    08:00 +18°C° 0 mm 2 m/s 623 mmHg 82%
    09:00 +20°C° 0 mm 2 m/s 623 mmHg 73%
    10:00 +22°C° 0 mm 3 m/s 624 mmHg 63%
    11:00 +24°C° 0,3 mm 3 m/s 624 mmHg 62%
    12:00 +25°C° 0,3 mm 2 m/s 623 mmHg 60%
    13:00 +26°C° 0,3 mm 2 m/s 623 mmHg 59%
    14:00 +25°C° 0,8 mm 2 m/s 622 mmHg 63%
    15:00 +25°C° 0,8 mm 2 m/s 622 mmHg 68%
    16:00 +24°C° 0,8 mm 2 m/s 621 mmHg 72%
    17:00 +21°C° 0,9 mm 2 m/s 621 mmHg 78%
    18:00 +19°C° 0,9 mm 2 m/s 621 mmHg 84%
    19:00 +17°C° 0,9 mm 2 m/s 621 mmHg 91%
    20:00 +17°C° 0,2 mm 2 m/s 621 mmHg 91%
    21:00 +17°C° 0,2 mm 2 m/s 622 mmHg 92%
    22:00 +16°C° 0,2 mm 2 m/s 622 mmHg 93%
    23:00 +16°C° 0,1 mm 2 m/s 622 mmHg 93%

    27 Février, Mardi

    Heure Température Précipitation Vent Pression Humidité
    00:00 +16°C° 0,1 mm 2 m/s 621 mmHg 93%
    01:00 +15°C° 0,1 mm 2 m/s 621 mmHg 93%
    02:00 +15°C° 0 mm 2 m/s 621 mmHg 94%
    03:00 +15°C° 0 mm 2 m/s 620 mmHg 94%
    04:00 +15°C° 0 mm 2 m/s 620 mmHg 94%
    05:00 +15°C° 0 mm 2 m/s 620 mmHg 92%
    06:00 +16°C° 0 mm 2 m/s 621 mmHg 91%
    07:00 +16°C° 0 mm 2 m/s 621 mmHg 90%
    08:00 +19°C° 0 mm 2 m/s 622 mmHg 80%
    09:00 +21°C° 0 mm 2 m/s 623 mmHg 70%
    10:00 +25°C° 0 mm 2 m/s 624 mmHg 60%
    11:00 +26°C° 0,4 mm 2 m/s 623 mmHg 58%
    12:00 +26°C° 0,4 mm 2 m/s 623 mmHg 56%
    13:00 +27°C° 0,4 mm 2 m/s 623 mmHg 55%
    14:00 +26°C° 0,7 mm 2 m/s 622 mmHg 60%
    15:00 +26°C° 0,7 mm 2 m/s 621 mmHg 65%
    16:00 +25°C° 0,7 mm 2 m/s 621 mmHg 70%
    17:00 +23°C° 0,6 mm 2 m/s 621 mmHg 77%
    18:00 +20°C° 0,6 mm 2 m/s 620 mmHg 83%
    19:00 +18°C° 0,6 mm 2 m/s 620 mmHg 89%
    20:00 +17°C° 0 mm 2 m/s 621 mmHg 90%
    21:00 +17°C° 0 mm 2 m/s 621 mmHg 90%
    22:00 +16°C° 0 mm 2 m/s 621 mmHg 90%
    23:00 +16°C° 0 mm 2 m/s 621 mmHg 91%

    28 Février, Mercredi

    Heure Température Précipitation Vent Pression Humidité
    00:00 +16°C° 0 mm 2 m/s 621 mmHg 91%
    01:00 +16°C° 0 mm 2 m/s 620 mmHg 91%
    02:00 +15°C° 0 mm 2 m/s 620 mmHg 92%
    03:00 +15°C° 0 mm 2 m/s 620 mmHg 93%
    04:00 +15°C° 0 mm 2 m/s 620 mmHg 94%
    05:00 +15°C° 0 mm 2 m/s 621 mmHg 92%
    06:00 +16°C° 0 mm 2 m/s 621 mmHg 91%
    07:00 +16°C° 0 mm 2 m/s 622 mmHg 90%
    08:00 +18°C° 0,1 mm 2 m/s 622 mmHg 82%
    09:00 +21°C° 0,1 mm 3 m/s 623 mmHg 75%
    10:00 +24°C° 0,1 mm 3 m/s 624 mmHg 67%
    11:00 +25°C° 0,6 mm 3 m/s 623 mmHg 66%
    12:00 +25°C° 0,6 mm 3 m/s 623 mmHg 64%
    13:00 +26°C° 0,6 mm 3 m/s 622 mmHg 62%
    14:00 +25°C° 1,1 mm 2 m/s 622 mmHg 65%
    15:00 +25°C° 1,1 mm 2 m/s 621 mmHg 68%
    16:00 +25°C° 1,1 mm 2 m/s 621 mmHg 71%
    17:00 +23°C° 0,6 mm 2 m/s 621 mmHg 76%
    18:00 +20°C° 0,6 mm 2 m/s 621 mmHg 82%
    19:00 +18°C° 0,6 mm 2 m/s 621 mmHg 87%
    20:00 +17°C° 0,1 mm 2 m/s 621 mmHg 88%
    21:00 +17°C° 0,1 mm 2 m/s 621 mmHg 89%
    22:00 +16°C° 0,1 mm 2 m/s 621 mmHg 90%
    23:00 +16°C° 0 mm 2 m/s 621 mmHg 90%
    Voir plus